Regional Weather Roundup
Issued by NWS Grand Forks, ND

Home | Current Version | Previous Version | Graphics & Text | Print | Product List | Glossary On
Versions: 1 2 3 4 5 6 7 8 9 10 11 12 13 14 15 16 17 18 19 20 21 22 23 24 25 26 27 28 29 30 31 32 33 34 35 36 37 38 39 40 41 42 43 44 45 46 47 48 49 50
259
ASUS43 KFGF 010131
RWRFGF
PRAIRIE TO PINES  WEATHER ROUNDUP
NATIONAL WEATHER SERVICE EASTERN NORTH DAKOTA/GRAND FORKS ND
800 PM CDT FRI SEP 30 2016

 **SATELLITE DATA USED TO AUGMENT SKY COVER AT AUTOMATED STATIONS**
 *****  WEATHER ACROSS EASTERN NORTH DAKOTA  *****

CITY           SKY/WX    TMP DP  RH WIND       PRES   REMARKS
GRAND FORKS    CLOUDY    61  50  67 SE9       30.18F
GRAND FRKS AFB PTCLDY    60  50  68 SE8       30.18F
GRAND FRKS NWS   N/A     59 N/A N/A SE15        N/A
DEVILS LAKE    MOCLDY    61  51  70 SE8       30.15F
FARGO          CLEAR     62  49  62 SE8       30.19F
WAHPETON ARPT  PTCLDY    59  46  63 E7        30.20F
$$

 ***** WEATHER ACROSS CENTRAL AND WESTERN NORTH DAKOTA  *****

CITY           SKY/WX    TMP DP  RH WIND       PRES   REMARKS
BISMARCK       PTCLDY    64  46  52 SE12      30.07R
MINOT          CLOUDY    63  51  65 SE9       30.06S
JAMESTOWN      PTCLDY    59  48  67 SE8       30.14S
MINOT AFB      CLOUDY    61  52  71 SE12      30.05R
GARRISON         N/A     60  52  74 E6        30.05F
WILLISTON      CLOUDY    61  52  72 CALM      30.00F
DICKINSON      CLEAR     60  46  59 SE10      30.00F
HETTINGER      PTCLDY    62  47  57 E7        30.03S
$$

 *****  OTHER AIRPORT OBSERVATIONS IN OUR AREA  *****

CITY           SKY/WX    TMP DP  RH WIND       PRES   REMARKS
WALHALLA       FAIR      59  55  88 SE8       30.16F
GRAFTON AIRPOR FAIR      61  54  77 SE9       30.19F
VALLEY CITY AR CLOUDY    59  45  58 SE9       30.18F
CANDO          MOCLDY    59  52  77 SE10      30.15F
CAVALIER APRT  FAIR      61  52  72 SE7       30.16F
GWINNER        FAIR      59  48  67 E10       30.17F
ROLLA          CLOUDY    57  48  72 S10       30.13F
 ***** THE ABOVE OBSERVATIONS ARE NON NWS ARE NOT QUALITY
       CONTROLLED AND MAY MIS-REPORT RAIN FOR SNOW...
$$

  *****  WEATHER ACROSS NORTHERN MINNESOTA  *****

CITY           SKY/WX    TMP DP  RH WIND       PRES   REMARKS
FLAG ISLAND    CLOUDY    54  52  94 SE13      30.26F
WARROAD        PTCLDY    54  52  94 E9        30.27S
ROSEAU         PTCLDY    55  50  82 E3        30.25F
HALLOCK        CLOUDY    59  54  82 E9        30.19F
THF RVR FALLS  CLEAR     58  52  80 SE12      30.24S
BAUDETTE       NOT AVBL
WASKISH        PTCLDY    50  48  93 E5        30.27F
CROOKSTON      PTCLDY    55  48  76 SE7       30.22S
STEPHEN NDAWN    N/A     59  54  82 SE5         N/A
GREENBUSH NDAW   N/A     55  52  88 SE7         N/A
$$
  *****  WEATHER ACROSS CENTRAL AND WEST MINNESOTA  *****

CITY           SKY/WX    TMP DP  RH WIND       PRES   REMARKS
FOSSTON        CLEAR     52  46  82 E3        30.25F
BEMIDJI        CLOUDY    49  49  99 CALM      30.26F
PARK RAPIDS    CLEAR     59  48  67 CALM      30.26S
ELBOW LAKE     FAIR      57  50  77 SE7       30.22F
WADENA         CLEAR     52  48  87 NE5       30.24F
DETROIT LAKES  CLOUDY    59  50  72 SE5       30.25S
MOORHEAD       PTCLDY    59  50  72 MISG      30.21F
FERGUS FALLS   PTCLDY    61  46  59 E7        30.23F
MORRIS MN      PTCLDY    55  46  71 E7        30.20F
STAPLES        CLEAR     54  48  82 CALM      30.25S
$$
  *****  WEATHER ELSEWHERE ACROSS MINNESOTA  *****

CITY           SKY/WX    TMP DP  RH WIND       PRES   REMARKS
DULUTH         CLOUDY    52  51  97 E12       30.29F FOG
INTRNTL FALLS  CLEAR     45  44  97 CALM      30.30F
ELY            CLEAR     54  46  76 CALM      30.32S
CLOQUET        CLOUDY    52  50  93 E7        30.29F
WHEATON        PTCLDY    59  48  67 SE5       30.22S
BRAINERD       CLEAR     56  46  69 E7        30.26F
HIBBING        CLEAR     50  46  86 SE5       30.30S
ALEXANDRIA     CLEAR     56  51  84 E7        30.24F
SAINT CLOUD    CLEAR     59  53  80 NE3       30.23S
MINNEAPOLIS    PTCLDY    63  51  65 NE7       30.21S
$$

  *****  WEATHER ACROSS SOUTH DAKOTA  *****

CITY           SKY/WX    TMP DP  RH WIND       PRES   REMARKS
SIOUX FALLS    MOCLDY    59  47  64 E6        30.17S
BROOKINGS      PTCLDY    61  46  57 E9        30.18S
WATERTOWN      PTCLDY    63  44  50 SE6       30.18F
HURON          PTCLDY    62  46  55 SE7       30.14S
SISSETON         N/A     56  47  71 SE5       30.18S
ABERDEEN       PTCLDY    60  44  55 SE7       30.15S
MITCHELL       PTCLDY    62  46  55 SE7       30.15F
PIERRE         CLOUDY    67  45  45 SE15      30.06S
MOBRIDGE       PTCLDY    67  44  43 SE14      30.05F
RAPID CITY     CLOUDY    67  52  58 SE5       30.01F
$$

  *****  SOME WEATHER IN NEARBY STATES *****

CITY           SKY/WX    TMP DP  RH WIND       PRES   REMARKS
GLASGOW MT     CLEAR     72  51  47 VRB5      29.92F
GREAT FALLS MT CLEAR     70  45  40 E8        29.96S
CHEYENNE WY    CLOUDY    58  48  69 S5        30.21R
SCOTTSBLUFF NE CLOUDY    60  48  64 E8        30.10F
OMAHA NE       PTCLDY    64  52  64 E7        30.14S
DES MOINES IA  CLOUDY    64  55  72 NE6       30.16S
DAVENPORT IA   CLOUDY    60  59  96 N9        30.12S
CHICAGO IL     LGT RAIN  62  58  86 NE10      30.07S
EAU CLAIRE WI  CLOUDY    64  53  67 NE5       30.20F
LA CROSSE WI   CLOUDY    65  57  75 VRB5      30.19F
$$

  *****  SOME NATIONAL WEATHER *****

CITY           SKY/WX    TMP DP  RH WIND       PRES   REMARKS
LA GUARDIA NY  LGT RAIN  60  57  89 NE17G25   30.26R FOG
RALEIGH NC     PTCLDY    74  70  87 SE6       30.00R
ATLANTA GA     PTCLDY    68  47  46 NW6       30.05R
NEW ORLEANS LA PTCLDY    76  60  57 N3        30.04S
OKLAHOMA CITY  MOCLDY    65  48  54 CALM      30.10F
ALBUQUERQUE NM PTCLDY    75  41  29 NW14      30.17S
SALT LAKE CITY MOCLDY    74  47  38 E6        30.07F
LOS ANGELES CA PTCLDY    72  62  71 W14       29.93F
BOISE ID       MOCLDY    81  30  15 SE10      29.86F
SEATTLE WA     PTCLDY    62  38  40 S6        29.97F
$$

*** WEATHER ACROSS MANITOBA...SASKATCHEWAN AND ONTARIO ***
                ***ONTARIO***

CITY           SKY/WX    TMP DP  RH WIND       PRES   REMARKS
GERALDTON      CLEAR     55  52  88 NE3       30.38S
THUNDER BAY    PTCLDY    52  52 100 N2        30.34F
SIOUX LOOKOUT  PTCLDY    48  46  93 SE3       30.32F
TORONTO        MOCLDY    61  52  72 E20G28    30.25F
BIG TROUT LK   MOCLDY    57  50  77 S8        30.29S
PICKLE LAKE    MOCLDY    52  48  87 SE5       30.33F
DRYDEN         CLEAR     55  52  88 S6        30.31S
KENORA         CLOUDY    52  50  93 S9        30.28F
$$
                *** MANITOBA***

CITY           SKY/WX    TMP DP  RH WIND       PRES   REMARKS
BRANDON        LGT RAIN  61  50  67 SE10G17   30.10F
DAUPHIN        PTCLDY    61  50  67 S6        30.06S
ISLAND LAKE    PTCLDY    59  50  72 S7        30.21F
PILOT MOUND      N/A     59  48  67 SE10        N/A
THE PAS        PTCLDY    59  50  72 SE14      30.02F
THOMPSON       PTCLDY    57  52  82 E2        30.13
WINNIPEG       CLOUDY    61  52  72 SE13G22   30.18F
LYNN LAKE      CLOUDY    48  48 100 NE10      30.15S FOG
CHURCHILL      MOCLDY    43  37  81 E7        30.34R
GILLAM         CLOUDY    54  52  94 E6        30.21F
$$
                ***SASKATCHEWAN***

CITY           SKY/WX    TMP DP  RH WIND       PRES   REMARKS
ESTEVAN        MOCLDY    55  52  88 E7        30.03S
KINDERSLEY     PTCLDY    55  50  82 NE5       29.97R
LLOYDMINSTER   CLOUDY    50  46  87 NE10      30.05R
PRINCE ALBERT  PTCLDY    55  48  76 N5        29.97F
REGINA         PTCLDY    59  50  72 SE13      29.99F
YORKTON        CLEAR     61  50  67 S10       30.01S
N. BATTLEFORD  CLEAR     54  46  76 N9        30.01R
LA RONGE       DRIZZLE   50  50 100 N10       30.08S
SASKATOON      PTCLDY    55  50  82 N8        29.96F
SWIFT CURRENT  PTCLDY    61  50  67 SE8       29.94F
$$
NOTE: THESE ARE AUTOMATED STATIONS WITH LIMITED QUALITY CONTROL
      "FAIR" INDICATES FEW OR NO CLOUDS BELOW 12,000 FEET WITH NO
      SIGNIFICANT WEATHER AND/OR OBSTRUCTIONS TO VISIBILITY.
      SKY/WX - SKY CONDITION AND SIGNIFICANT WEATHER.
      TMP - AIR TEMPERATURE.    DP   - DEWPOINT TEMPERATURE.
      RH  - RELATIVE HUMIDITY.  PRES - PRESSURE.
      HX  - HEAT INDEX.         WCI  - WIND CHILL INDEX.
$




USA.gov is the U.S. government's official web portal to all federal, state and local government web resources and services.